OK1CBR-13 Weather Reports


time (UTC)temp
C
wind
direction
speed
KPH
gust
KPH
rain 1hr
cm
rain 24hr
cm
rain mn
cm
humidity
%
barometer
mb
20260507191734 13 0.0 0.0 0.00 0.00 0.00 86 1015.3
20260507190734 13 0.0 0.0 0.00 0.00 0.00 85 1015.0
20260507185734 13 0.0 0.0 0.00 0.00 0.00 84 1014.9
20260507184734 13 0.0 0.0 0.00 0.00 0.00 83 1014.7
20260507183734 13 0.0 0.0 0.00 0.00 0.00 83 1014.6
20260507182734 13 0.0 0.0 0.00 0.00 0.00 80 1014.4
20260507181734 13 0.0 0.0 0.00 0.00 0.00 79 1014.3
20260507180734 14 0.0 0.0 0.00 0.00 0.00 77 1014.2
20260507175734 14 0.0 0.0 0.00 0.00 0.00 77 1014.2
20260507174734 14 0.0 0.0 0.00 0.00 0.00 75 1014.1
20260507173734 15 0.0 0.0 0.00 0.00 0.00 74 1014.1
20260507172734 15 0.0 0.0 0.00 0.00 0.00 72 1013.9
20260507171734 15 0.0 0.0 0.00 0.00 0.00 72 1013.9
20260507170734 15 0.0 0.0 0.00 0.00 0.00 68 1013.8
20260507165734 16 0.0 0.0 0.00 0.00 0.00 66 1013.7
20260507164734 16 0.0 0.0 0.00 0.00 0.00 63 1013.5
20260507163734 17 0.0 0.0 0.00 0.00 0.00 55 1013.3
20260507162734 18 0.0 0.0 0.00 0.00 0.00 54 1013.1
20260507161735 19 0.0 0.0 0.00 0.00 0.00 51 1013.1
20260507160734 18 0.0 0.0 0.00 0.00 0.00 51 1013.1
20260507155737 19 0.0 0.0 0.00 0.00 0.00 48 1013.0
20260507154733 20 0.0 0.0 0.00 0.00 0.00 45 1013.0
20260507153733 21 0.0 0.0 0.00 0.00 0.00 45 1013.0
20260507152733 20 0.0 0.0 0.00 0.00 0.00 46 1013.0
20260507151733 21 0.0 0.0 0.00 0.00 0.00 47 1012.9
20260507150733 20 0.0 0.0 0.00 0.00 0.00 47 1013.0
20260507145733 18 0.0 0.0 0.00 0.00 0.00 49 1012.9
20260507144733 21 0.0 0.0 0.00 0.00 0.00 46 1012.9
20260507143733 20 0.0 0.0 0.00 0.00 0.00 47 1012.9
20260507142733 20 0.0 0.0 0.00 0.00 0.00 45 1012.9
20260507141733 19 0.0 0.0 0.00 0.00 0.00 48 1013.0
20260507140733 18 0.0 0.0 0.00 0.00 0.00 51 1013.1
20260507135733 18 0.0 0.0 0.00 0.00 0.00 54 1013.1
20260507134733 18 0.0 0.0 0.00 0.00 0.00 56 1013.1
20260507133733 18 0.0 0.0 0.00 0.00 0.00 53 1013.3
20260507132733 18 0.0 0.0 0.00 0.00 0.00 57 1013.2
20260507131733 18 0.0 0.0 0.00 0.00 0.00 53 1013.2
20260507130733 18 0.0 0.0 0.00 0.00 0.00 60 1013.3
20260507125733 17 0.0 0.0 0.00 0.00 0.00 60 1013.1
20260507124733 18 0.0 0.0 0.00 0.00 0.00 56 1013.1
20260507123733 18 0.0 0.0 0.00 0.00 0.00 53 1013.0
20260507122733 19 0.0 0.0 0.00 0.00 0.00 53 1012.9
20260507121733 19 0.0 0.0 0.00 0.00 0.00 56 1012.8
20260507120733 18 0.0 0.0 0.00 0.00 0.00 57 1012.8
20260507114733 18 0.0 0.0 0.00 0.00 0.00 55 1012.7
20260507113733 17 0.0 0.0 0.00 0.00 0.00 61 1012.7
20260507112733 17 0.0 0.0 0.00 0.00 0.00 63 1012.7
20260507111735 18 0.0 0.0 0.00 0.00 0.00 63 1012.7
20260507110733 17 0.0 0.0 0.00 0.00 0.00 64 1012.7
20260507105733 17 0.0 0.0 0.00 0.00 0.00 68 1012.6
20260507104733 17 0.0 0.0 0.00 0.00 0.00 67 1012.6
20260507103733 17 0.0 0.0 0.00 0.00 0.00 65 1012.6
20260507102733 17 0.0 0.0 0.00 0.00 0.00 69 1012.4
20260507101733 17 0.0 0.0 0.00 0.00 0.00 63 1012.4
20260507100733 18 0.0 0.0 0.00 0.00 0.00 59 1012.2
20260507095734 17 0.0 0.0 0.00 0.00 0.00 63 1012.2
20260507094734 17 0.0 0.0 0.00 0.00 0.00 68 1012.2
20260507093734 17 0.0 0.0 0.00 0.00 0.00 70 1012.2
20260507092734 17 0.0 0.0 0.00 0.00 0.00 76 1012.2
20260507091734 16 0.0 0.0 0.00 0.00 0.00 74 1012.2
20260507090733 16 0.0 0.0 0.00 0.00 0.00 80 1012.1
20260507085734 16 0.0 0.0 0.00 0.00 0.00 79 1012.0
20260507084734 16 0.0 0.0 0.00 0.00 0.00 77 1011.9
20260507083734 15 0.0 0.0 0.00 0.00 0.00 81 1011.8
20260507082734 15 0.0 0.0 0.00 0.00 0.00 84 1011.9
20260507081734 15 0.0 0.0 0.00 0.00 0.00 87 1011.7
20260507080734 15 0.0 0.0 0.00 0.00 0.00 89 1011.7
20260507075734 15 0.0 0.0 0.00 0.00 0.00 92 1011.7
20260507074734 14 0.0 0.0 0.00 0.00 0.00 95 1011.7
20260507073734 14 0.0 0.0 0.00 0.00 0.00 93 1011.7
20260507072734 14 0.0 0.0 0.00 0.00 0.00 95 1011.6
20260507071734 13 0.0 0.0 0.00 0.00 0.00 99 1011.5
20260507070734 13 0.0 0.0 0.00 0.00 0.00 10 1011.4
20260507065734 14 0.0 0.0 0.00 0.00 0.00 10 1011.4
20260507064734 14 0.0 0.0 0.00 0.00 0.00 10 1011.3
20260507063734 13 0.0 0.0 0.00 0.00 0.00 10 1011.3
20260507062734 13 0.0 0.0 0.00 0.00 0.00 10 1011.1
20260507061734 13 0.0 0.0 0.00 0.00 0.00 10 1011.0
20260507060734 12 0.0 0.0 0.00 0.00 0.00 10 1010.9
20260507055734 12 0.0 0.0 0.00 0.00 0.00 10 1010.8
20260507054734 12 0.0 0.0 0.00 0.00 0.00 10 1010.7
20260507053734 12 0.0 0.0 0.00 0.00 0.00 10 1010.5
20260507052734 12 0.0 0.0 0.00 0.00 0.00 10 1010.4
20260507051734 12 0.0 0.0 0.00 0.00 0.00 10 1010.4
20260507050734 12 0.0 0.0 0.00 0.00 0.00 10 1010.3
20260507045734 12 0.0 0.0 0.00 0.00 0.00 10 1010.3
20260507044734 12 0.0 0.0 0.00 0.00 0.00 10 1010.1
20260507043734 12 0.0 0.0 0.00 0.00 0.00 10 1009.9
20260507042734 12 0.0 0.0 0.00 0.00 0.00 10 1009.8
20260507041734 12 0.0 0.0 0.00 0.00 0.00 10 1009.7
20260507040734 12 0.0 0.0 0.00 0.00 0.00 10 1009.5
20260507035737 12 0.0 0.0 0.00 0.00 0.00 10 1009.4
20260507034732 12 0.0 0.0 0.00 0.00 0.00 10 1009.3
20260507033732 12 0.0 0.0 0.00 0.00 0.00 10 1009.1
20260507032732 12 0.0 0.0 0.00 0.00 0.00 10 1009.1
20260507031732 12 0.0 0.0 0.00 0.00 0.00 10 1009.1
20260507030732 12 0.0 0.0 0.00 0.00 0.00 10 1009.1
20260507025732 12 0.0 0.0 0.00 0.00 0.00 10 1009.1
20260507024732 12 0.0 0.0 0.00 0.00 0.00 10 1009.1
20260507023732 12 0.0 0.0 0.00 0.00 0.00 10 1009.1
20260507022732 12 0.0 0.0 0.00 0.00 0.00 10 1009.0
20260507020732 12 0.0 0.0 0.00 0.00 0.00 10 1008.9
20260507015732 12 0.0 0.0 0.00 0.00 0.00 10 1008.9
20260507014732 12 0.0 0.0 0.00 0.00 0.00 10 1009.0
20260507013732 12 0.0 0.0 0.00 0.00 0.00 10 1008.8
20260507012732 12 0.0 0.0 0.00 0.00 0.00 10 1008.8
20260507011732 12 0.0 0.0 0.00 0.00 0.00 10 1008.7
20260507010732 12 0.0 0.0 0.00 0.00 0.00 10 1008.8
20260507005732 12 0.0 0.0 0.00 0.00 0.00 10 1008.7
20260507004732 12 0.0 0.0 0.00 0.00 0.00 10 1008.7
20260507003732 12 0.0 0.0 0.00 0.00 0.00 10 1008.4
20260507002732 12 0.0 0.0 0.00 0.00 0.00 10 1008.2
20260507001732 12 0.0 0.0 0.00 0.00 0.00 10 1008.0
20260507000732 13 0.0 0.0 0.00 0.00 0.00 10 1007.8
20260506235732 13 0.0 0.0 0.00 0.00 0.00 10 1007.5
20260506234732 13 0.0 0.0 0.00 0.00 0.00 10 1007.4
20260506233732 13 0.0 0.0 0.00 0.00 0.00 10 1007.3
20260506232732 13 0.0 0.0 0.00 0.00 0.00 10 1007.2
20260506231733 13 0.0 0.0 0.00 0.00 0.00 10 1007.1
20260506230732 13 0.0 0.0 0.00 0.00 0.00 10 1007.1
20260506225733 13 0.0 0.0 0.00 0.00 0.00 10 1006.7
20260506224733 13 0.0 0.0 0.00 0.00 0.00 10 1006.8
20260506223732 13 0.0 0.0 0.00 0.00 0.00 10 1007.7
20260506222733 13 0.0 0.0 0.00 0.00 0.00 10 1007.8
20260506221733 13 0.0 0.0 0.00 0.00 0.00 10 1008.3
20260506220733 13 0.0 0.0 0.00 0.00 0.00 10 1008.3
20260506215733 13 0.0 0.0 0.00 0.00 0.00 10 1008.7
20260506214733 13 0.0 0.0 0.00 0.00 0.00 10 1007.9
20260506213733 13 0.0 0.0 0.00 0.00 0.00 10 1007.8
20260506212733 13 0.0 0.0 0.00 0.00 0.00 10 1007.3
20260506211733 13 0.0 0.0 0.00 0.00 0.00 10 1006.9
20260506210733 13 0.0 0.0 0.00 0.00 0.00 10 1006.7
20260506205733 13 0.0 0.0 0.00 0.00 0.00 10 1005.9
20260506204733 13 0.0 0.0 0.00 0.00 0.00 10 1006.4
20260506203733 13 0.0 0.0 0.00 0.00 0.00 10 1006.9
20260506202734 13 0.0 0.0 0.00 0.00 0.00 10 1006.9
20260506201734 13 0.0 0.0 0.00 0.00 0.00 10 1006.8
20260506200734 13 0.0 0.0 0.00 0.00 0.00 10 1006.3
20260506195733 13 0.0 0.0 0.00 0.00 0.00 10 1005.9
20260506194733 13 0.0 0.0 0.00 0.00 0.00 10 1005.6
20260506193734 13 0.0 0.0 0.00 0.00 0.00 10 1005.5
20260506192734 13 0.0 0.0 0.00 0.00 0.00 10 1005.5